[[{"header":{"parameterUnit":"m.s-1","parameterCategory":1,"la1":30.2991,"la2":30.254,"lo1":-89.0895,"lo2":-89.0444,"dy":0.0017,"dx":0.0017,"nx":28,"ny":28,"refTime":"2025-06-03T09:00:00:Z","depth":0,"parameterNumber":2,"parameterNumberName":"U-component_of_WINDS"},"data":[0,0,0,0,0,0,0,0,0,0,0,0,0,0,0,0,0,0,0,0,0,0,0,0,0,0,0,0,0,0,0,0,0,0,0,0,0,0,0,0,0,0,0,0,0,0,0,0,0,0,0,0,0,0,0,0,0,0,-6.3195,-6.3196,0,-6.3311,-6.3312,-6.3313,-6.3248,-6.3245,-6.3242,-6.3239,-6.3359,-6.3366,-6.3372,0,0,0,0,0,0,0,0,0,0,0,0,0,-6.292,-6.2925,-6.3195,-6.3196,-6.3197,-6.331,-6.3312,-6.3314,-6.3249,-6.3245,-6.3241,-6.3237,-6.3357,-6.3365,-6.3372,0,0,0,0,0,0,0,0,0,0,0,0,0,-6.3038,-6.2927,-6.3194,-6.3179,-6.3179,-6.331,-6.3312,-6.3314,-6.325,-6.3245,-6.324,-6.3236,-6.3355,-6.3364,-6.3373,-6.3527,0,0,-6.3402,-6.3406,0,0,0,0,0,0,0,0,-6.3031,-6.3048,-6.318,-6.318,-6.318,-6.326,-6.3259,-6.3386,-6.3251,-6.3223,-6.3239,-6.3233,-6.333,-6.3341,-6.3374,-6.3533,-6.3538,-6.3402,-6.3408,-6.3412,-6.3415,0,0,0,0,0,0,0,-6.3023,-6.3043,-6.324,-6.3182,-6.3182,-6.3167,-6.3178,-6.3283,-6.3302,-6.3225,-6.322,-6.3235,-6.333,-6.3365,-6.3376,-6.354,-6.3402,-6.3411,-6.3416,-6.342,-6.383,-6.3835,0,0,0,0,0,0,-6.3016,-6.3036,-6.3237,-6.3244,-6.3092,-6.3176,-6.3188,-6.3239,-6.3301,-6.3306,-6.3239,-6.3231,-6.3351,-6.3365,-6.338,-6.3562,-6.3412,-6.3421,-6.3426,-6.3824,-6.3831,-6.3837,0,0,0,0,0,0,-6.301,-6.3034,-6.3232,-6.3139,-6.3163,-6.3186,-6.3243,-6.3244,-6.3279,-6.3312,-6.3315,-6.3271,-6.3348,-6.3367,-6.3491,-6.3565,-6.3425,-6.3433,-6.3818,-6.3826,-6.3834,-6.3929,0,0,0,0,0,0,-6.3002,-6.3032,-6.309,-6.3141,-6.3168,-6.334,-6.3248,-6.325,-6.3295,-6.3287,-6.3343,-6.3347,-6.3346,-6.3477,-6.35,-6.3576,-6.3441,-6.3811,-6.3822,-6.3831,-6.3919,-6.3939,-6.3956,0,0,0,0,0,-6.2993,-6.3113,-6.3094,-6.3118,-6.3241,-6.3344,-6.336,-6.3355,-6.3302,-6.336,-6.3381,-6.3346,-6.3555,-6.349,-6.3515,-6.3595,-6.3807,-6.3819,-6.383,-6.391,-6.3935,-6.3955,0,0,0,0,0,0,-6.3072,-6.3119,-6.3098,-6.3239,-6.3288,-6.3333,-6.3407,-6.3382,-6.3448,-6.3437,-6.3429,-6.3442,-6.357,-6.3596,-6.3523,-6.3747,-6.3672,-6.369,-6.3724,-6.3748,-6.3766,-6.3755,-6.3448,0,0,0,0,0,-6.3105,-6.3185,-6.3223,-6.3343,-6.3369,-6.3384,-6.3429,-6.3421,-6.3472,-6.3493,-6.3522,-6.3574,-6.3651,-6.3702,-6.3775,-6.3924,-6.3934,-6.3991,-6.401,-6.4025,-6.4039,-6.4118,-6.4143,-6.3876,-6.3876,-6.3875,0,0,-6.3176,-6.3212,-6.3262,-6.336,-6.3397,-6.3479,-6.3402,-6.3493,-6.3553,-6.3507,-6.3623,-6.3648,-6.3705,-6.3842,-6.3904,-6.3867,-6.4116,-6.404,-6.4052,-6.4058,-6.4133,-6.4158,-6.4181,-6.3884,-6.3882,-6.3881,0,0,-6.3345,-6.3381,-6.3484,-6.3523,-6.358,-6.359,-6.3615,-6.3665,-6.3678,-6.3796,-6.3763,-6.3836,-6.397,-6.4011,-6.4049,-6.4236,-6.4205,-6.4261,-6.4356,-6.4433,-6.4454,-6.4473,-6.4537,-6.456,-6.4276,-6.4276,-6.4276,0,-6.3424,-6.3546,-6.354,-6.3633,-6.3676,-6.3639,-6.3742,-6.3781,-6.386,-6.3891,-6.385,-6.4015,-6.4052,-6.4196,-6.4241,-6.4276,-6.4303,-6.4252,-6.4452,-6.447,-6.4488,-6.4548,-6.4573,-6.4282,-6.4281,-6.4281,-6.428,0,-6.364,-6.3726,-6.3802,-6.3877,-6.393,-6.4029,-6.4038,-6.4093,-6.4081,-6.4096,-6.4216,-6.4258,-6.4338,-6.4373,-6.4364,-6.4517,-6.4492,-6.4452,-6.4376,-6.4519,-6.4576,-6.4599,-6.4291,-6.4288,-6.4287,-6.4285,0,0,-6.3858,-6.393,-6.3958,-6.3991,-6.4053,-6.4118,-6.4216,-6.4293,-6.4339,-6.4396,-6.4476,-6.4591,-6.4554,-6.4598,-6.4593,-6.4662,-6.4804,-6.4613,-6.4614,-6.4644,-6.4973,-6.4999,-6.5026,-6.4786,-6.4791,-6.4794,-6.4967,0,-6.4028,-6.4196,-6.4194,-6.4349,-6.4427,-6.4394,-6.4478,-6.4525,-6.4542,-6.4612,-6.4631,-6.4711,-6.4658,-6.4684,-6.475,-6.4772,-6.4869,-6.4761,-6.4859,-6.4862,-6.4841,-6.5056,-6.5085,-6.5245,-6.4989,-6.4993,-6.4996,0,-6.4248,-6.431,-6.4473,-6.4522,-6.4554,-6.463,-6.4701,-6.4768,-6.4822,-6.4829,-6.4879,-6.4864,-6.4963,-6.4888,-6.5024,-6.495,-6.4991,-6.5009,-6.5015,-6.502,-6.4934,-6.5064,-6.5297,-6.5319,-6.5031,-6.5028,-6.5026,0,-6.4386,-6.4511,-6.4624,-6.4654,-6.4716,-6.4769,-6.4797,-6.4846,-6.4893,-6.4956,-6.4986,-6.5061,-6.51,-6.5159,-6.5164,-6.511,-6.5301,-6.5227,-6.5308,-6.5308,-6.5346,-6.5343,-6.5585,-6.538,-6.538,-6.5379,-6.5379,0,-6.4573,-6.4673,-6.4686,-6.4755,-6.4867,-6.4865,-6.4976,-6.5,-6.5044,-6.5117,-6.5095,-6.5164,-6.517,-6.5242,-6.5248,-6.5358,-6.5377,-6.5385,-6.5385,-6.5385,-6.5383,-6.5408,-6.5396,-6.5386,-6.5384,-6.5383,-6.5382,0,-6.4744,-6.4757,-6.4877,-6.4926,-6.4941,-6.502,-6.5062,-6.5128,-6.5144,-6.5237,-6.5259,-6.5284,-6.5367,-6.538,-6.5479,-6.5483,-6.5614,-6.5604,-6.5595,-6.5592,-6.5672,-6.5663,-6.5935,-6.597,-6.5746,-6.5748,-6.575,0,-6.486,-6.4936,-6.4992,-6.5039,-6.507,-6.5147,-6.5194,-6.5197,-6.5247,-6.5314,-6.5372,-6.5453,-6.5518,-6.5653,-6.568,-6.5756,-6.5745,-6.5836,-6.5756,-6.5753,-6.5742,-6.5736,-6.5742,-6.5849,-6.5852,-6.5854,-6.5855,0,-6.5064,-6.5067,-6.5135,-6.5206,-6.5263,-6.532,-6.5373,-6.5413,-6.5423,-6.5481,-6.5566,-6.5616,-6.5717,-6.5797,-6.5872,-6.5902,-6.588,-6.5881,-6.5903,-6.5901,-6.5891,-6.5894,-6.5632,-6.5873,-6.5872,-6.587,-6.5869,-6.5869,-6.5208,-6.5273,-6.5323,-6.5399,-6.544,-6.5491,-6.5554,-6.5578,-6.5648,-6.5729,-6.5728,-6.582,-6.5873,-6.5971,-6.6007,-6.6079,-6.605,-6.6083,-6.6091,-6.6098,-6.6104,-6.5884,-6.6094,-6.6093,-6.6093,-6.6092,-6.6092,0,-6.5407,-6.5438,-6.5509,-6.5583,-6.5644,-6.562,-6.5678,-6.573,-6.5811,-6.5862,-6.5926,-6.6023,-6.6101,-6.6136,-6.6213,-6.6265,-6.6257,-6.6285,-6.6279,-6.6285,-6.6127,-6.6098,-6.629,-6.629,-6.629,-6.629,-6.6289,-6.6289,-6.5518,-6.5625,-6.5635,-6.5763,-6.5793,-6.5882,-6.5917,-6.5964,-6.6004,-6.6113,-6.6177,-6.62,-6.6244,-6.6324,-6.6395,-6.6404,-6.6431,-6.6463,-6.6467,-6.6317,-6.6297,-6.6278,-6.625,-6.647,-6.647,-6.6618,-6.6619,-6.662]},{"header":{"parameterUnit":"m.s-1","parameterCategory":1,"la1":30.2991,"la2":30.254,"lo1":-89.0895,"lo2":-89.0444,"dy":0.0017,"dx":0.0017,"nx":28,"ny":28,"refTime":"2025-06-03T09:00:00:Z","depth":0,"parameterNumber":3,"parameterNumberName":"V-component_of_WINDS"},"data":[0,0,0,0,0,0,0,0,0,0,0,0,0,0,0,0,0,0,0,0,0,0,0,0,0,0,0,0,0,0,0,0,0,0,0,0,0,0,0,0,0,0,0,0,0,0,0,0,0,0,0,0,0,0,0,0,0,0,3.1101,3.1101,0,3.1075,3.1074,3.1074,3.0993,3.0992,3.099,3.0988,3.0961,3.0962,3.0963,0,0,0,0,0,0,0,0,0,0,0,0,0,3.1084,3.1085,3.1101,3.1101,3.11,3.1075,3.1074,3.1074,3.0994,3.0992,3.0989,3.0987,3.0961,3.0962,3.0963,0,0,0,0,0,0,0,0,0,0,0,0,0,3.1078,3.1085,3.1101,3.1057,3.1053,3.1075,3.1074,3.1074,3.0994,3.0991,3.0989,3.0986,3.0961,3.0962,3.0964,3.1026,0,0,3.0968,3.0969,0,0,0,0,0,0,0,0,3.1078,3.1079,3.1064,3.106,3.1056,3.1035,3.1058,3.1058,3.0995,3.1017,3.0988,3.0985,3.0988,3.0987,3.0988,3.1024,3.1023,3.0968,3.0969,3.0969,3.097,0,0,0,0,0,0,0,3.1079,3.1079,3.1091,3.1064,3.1059,3.104,3.1036,3.1058,3.1018,3.1014,3.1009,3.1006,3.0985,3.0987,3.0987,3.1023,3.0968,3.0969,3.097,3.0971,3.1111,3.1113,0,0,0,0,0,0,3.1085,3.108,3.1091,3.109,3.1061,3.1042,3.1038,3.1044,3.1017,3.101,3.1009,3.1003,3.0986,3.0985,3.0985,3.1057,3.0969,3.0971,3.0972,3.1108,3.1111,3.1114,0,0,0,0,0,0,3.1085,3.1087,3.1092,3.1083,3.1083,3.1045,3.1053,3.1045,3.1046,3.1013,3.1005,3.1018,3.0983,3.0983,3.1016,3.1055,3.0971,3.0973,3.1104,3.1109,3.1113,3.12,0,0,0,0,0,0,3.1085,3.1088,3.111,3.1085,3.1083,3.1124,3.1055,3.1046,3.1049,3.1041,3.1019,3.1013,3.0981,3.1015,3.1018,3.1055,3.0974,3.1101,3.1106,3.1111,3.1194,3.1207,3.1218,0,0,0,0,0,3.1085,3.1136,3.1112,3.1114,3.1111,3.1126,3.1125,3.1088,3.1052,3.1075,3.1054,3.1014,3.105,3.1019,3.1022,3.106,3.1098,3.1105,3.1111,3.1188,3.1204,3.1218,0,0,0,0,0,0,3.1166,3.1131,3.1104,3.1148,3.1141,3.1112,3.114,3.1106,3.1108,3.1101,3.1054,3.105,3.109,3.1078,3.1044,3.1119,3.1068,3.1075,3.1125,3.114,3.1153,3.1154,3.0975,0,0,0,0,0,3.119,3.1204,3.1173,3.1215,3.1213,3.1177,3.1182,3.1155,3.1145,3.1141,3.1122,3.1115,3.1125,3.1132,3.1139,3.1192,3.1187,3.122,3.1232,3.1243,3.1249,3.1277,3.1292,3.1135,3.1135,3.1135,0,0,3.1237,3.122,3.1232,3.1231,3.1222,3.1239,3.1175,3.1195,3.1208,3.1144,3.1174,3.1161,3.1149,3.1193,3.1211,3.1184,3.1291,3.1251,3.1259,3.126,3.1285,3.13,3.1313,3.114,3.1139,3.1138,0,0,3.1333,3.1321,3.1355,3.1348,3.1335,3.1311,3.132,3.1297,3.1286,3.1315,3.1269,3.1283,3.1301,3.1295,3.1294,3.1391,3.1354,3.1395,3.1458,3.1486,3.1499,3.1509,3.1544,3.1557,3.1402,3.1402,3.1402,0,3.1393,3.1417,3.1377,3.1401,3.1402,3.1346,3.1381,3.1376,3.1366,3.1369,3.1339,3.1361,3.135,3.1392,3.1416,3.1417,3.1426,3.1396,3.15,3.1511,3.152,3.1553,3.1566,3.1407,3.1406,3.1406,3.1405,0,3.1492,3.151,3.1539,3.1532,3.1537,3.1566,3.1531,3.1541,3.1514,3.1494,3.1525,3.151,3.1514,3.1522,3.1495,3.1561,3.1544,3.1508,3.1455,3.1541,3.157,3.1583,3.1414,3.1412,3.1411,3.1409,0,0,3.1636,3.1608,3.162,3.1616,3.1599,3.1612,3.164,3.1644,3.1654,3.165,3.1672,3.169,3.1657,3.1656,3.1628,3.1653,3.1731,3.1614,3.1613,3.1636,3.1804,3.1831,3.1846,3.1708,3.171,3.1712,3.1805,0,3.1727,3.1771,3.1738,3.1789,3.1805,3.1754,3.1778,3.1771,3.1753,3.1765,3.1746,3.1759,3.1715,3.1714,3.1737,3.1717,3.1764,3.171,3.1728,3.1729,3.1732,3.1861,3.1889,3.1978,3.1816,3.1818,3.1819,0,3.1837,3.1839,3.1893,3.1874,3.1879,3.1902,3.1903,3.1915,3.1907,3.1892,3.1893,3.186,3.1886,3.1835,3.1872,3.1836,3.1841,3.1833,3.1836,3.1836,3.1779,3.1864,3.2005,3.2019,3.1837,3.1836,3.1835,0,3.1937,3.1953,3.1987,3.1986,3.1965,3.1982,3.1974,3.1963,3.1969,3.197,3.1973,3.1979,3.1981,3.1987,3.1956,3.1921,3.1997,3.1943,3.1986,3.1987,3.2003,3.2002,3.2147,3.2008,3.2008,3.2007,3.2007,0,3.2041,3.2076,3.2032,3.2053,3.2091,3.2052,3.2091,3.2077,3.2069,3.2087,3.2043,3.2061,3.2019,3.2033,3.2009,3.2043,3.2045,3.2035,3.2028,3.2038,3.204,3.2041,3.2034,3.2011,3.201,3.2009,3.2009,0,3.2159,3.213,3.2164,3.2143,3.2138,3.2167,3.2148,3.2167,3.2148,3.2172,3.2175,3.2145,3.2159,3.2129,3.2139,3.2123,3.2172,3.2156,3.2175,3.217,3.2215,3.2211,3.2365,3.2383,3.2233,3.2234,3.2236,0,3.2226,3.2252,3.2234,3.2243,3.2238,3.2253,3.2258,3.2222,3.223,3.2223,3.2243,3.2254,3.2261,3.2286,3.2266,3.2274,3.2257,3.231,3.2258,3.2268,3.2258,3.2257,3.2259,3.2321,3.2323,3.2324,3.2325,0,3.235,3.2336,3.2345,3.2351,3.2359,3.2361,3.236,3.2371,3.2332,3.2343,3.2358,3.2363,3.2374,3.2386,3.2389,3.2382,3.2348,3.2342,3.2353,3.2363,3.2374,3.2369,3.2204,3.2339,3.2337,3.2336,3.2336,3.2335,3.2445,3.2466,3.2456,3.2469,3.2465,3.2466,3.2483,3.2467,3.2478,3.2485,3.2463,3.2483,3.2475,3.2477,3.2473,3.2488,3.2464,3.2479,3.2483,3.2487,3.2495,3.2372,3.2489,3.2488,3.2488,3.2488,3.2487,0,3.2566,3.2558,3.2571,3.2572,3.2582,3.255,3.2548,3.2559,3.2577,3.2573,3.2581,3.2599,3.261,3.2592,3.26,3.2616,3.2601,3.262,3.2618,3.2617,3.2515,3.2505,3.2632,3.2632,3.2632,3.2632,3.2632,3.2632,3.2631,3.2665,3.265,3.2682,3.2674,3.2693,3.2695,3.2696,3.2693,3.2714,3.2724,3.2712,3.2702,3.271,3.272,3.2714,3.2719,3.2744,3.2733,3.2638,3.2624,3.261,3.2601,3.2745,3.2745,3.2833,3.2834,3.2834]}]]